User: anonymous   Login
Location: Unspecified
(0.0000°N, 0.0000°E)
Time: 18:23:34
(UTC+00:00)
Language:

YAM-6 - Orbit

View from above orbital plane
View from above orbital plane
View from above satellite
View from above satellite

Ground track
Ground track

The orbit is defined by the following mean orbital elements,

1 59126U          26145.33040389 +.00000000 +00000-0 +23200-3 0 00004
2 59126  97.5530 285.8324 0007115 316.9034  43.1652 15.36731228    05
Epoch (UTC): 25 May 2026 07:55:46
Eccentricity: 0.0007115
inclination: 97.5530°
perigee height: 451 km
apogee height: 461 km
right ascension of ascending node: 285.8324°
argument of perigee: 316.9034°
revolutions per day: 15.36731228
mean anomaly at epoch: 43.1652°

The dashed part of the orbit path shows where the satellite is in the earth's shadow,  

DLR